E20ZNR-1 Weather Reports


time (UTC)temp
C
wind
direction
speed
KPH
gust
KPH
rain 1hr
cm
rain 24hr
cm
rain mn
cm
humidity
%
barometer
mb
20260504150108 28 0 0.0 0.0 0.00 0.00 0.00 99 1007.0
20260504140117 28 0 0.0 0.0 0.00 0.00 0.00 99 1007.0
20260504130800 28 0 0.0 0.0 0.00 0.00 0.00 99 1005.0
20260504081556 28 0 0.0 0.0 0.00 0.00 0.00 97 1004.0
20260504045450 36 0 0.0 0.0 0.00 0.00 0.00 59 1006.0
20260504043925 36 0 0.0 0.0 0.00 0.00 0.00 60 1006.0
20260504042400 37 0 0.0 0.0 0.00 0.00 0.00 58 1007.0
20260504040836 37 0 0.0 0.0 0.00 0.00 0.00 58 1007.0
20260504035310 36 0 0.0 0.0 0.00 0.00 0.00 59 1007.0
20260504033745 36 0 0.0 0.0 0.00 0.00 0.00 57 1007.0
20260504032221 37 0 0.0 0.0 0.00 0.00 0.00 55 1007.0
20260504030656 37 0 0.0 0.0 0.00 0.00 0.00 55 1007.0
20260504025131 35 0 0.0 0.0 0.00 0.00 0.00 65 1008.0
20260504023606 36 0 0.0 0.0 0.00 0.00 0.00 67 1008.0
20260504022041 36 0 0.0 0.0 0.00 0.00 0.00 66 1008.0
20260504020516 35 0 0.0 0.0 0.00 0.00 0.00 65 1008.0
20260504014950 41 0 0.0 0.0 0.00 0.00 0.00 49 1007.0
20260504013424 43 0 0.0 0.0 0.00 0.00 0.00 45 1007.0
20260504011844 37 0 0.0 0.0 0.00 0.00 0.00 58 1007.0
20260504010248 37 0 0.0 0.0 0.00 0.00 0.00 66 1007.0
20260504004800 33 0 0.0 0.0 0.00 0.00 0.00 71 1007.0
20260504003235 36 0 0.0 0.0 0.00 0.00 0.00 62 1007.0
20260504001710 37 0 0.0 0.0 0.00 0.00 0.00 70 1007.0
20260504000146 34 0 0.0 0.0 0.00 0.00 0.00 77 1007.0
20260503234620 31 0 0.0 0.0 0.00 0.00 0.00 98 1007.0
20260503233055 27 0 0.0 0.0 0.00 0.00 0.00 99 1006.0
20260503231533 27 0 0.0 0.0 0.00 0.00 0.00 99 1006.0
20260503230004 26 0 0.0 0.0 0.00 0.00 0.00 99 1006.0
20260503224439 26 0 0.0 0.0 0.00 0.00 0.00 99 1006.0
20260503222914 27 0 0.0 0.0 0.00 0.00 0.00 99 1005.0
20260503221348 26 0 0.0 0.0 0.00 0.00 0.00 99 1005.0
20260503215822 27 0 0.0 0.0 0.00 0.00 0.00 99 1005.0
20260503214257 27 0 0.0 0.0 0.00 0.00 0.00 99 1005.0
20260503212731 27 0 0.0 0.0 0.00 0.00 0.00 99 1005.0
20260503211207 27 0 0.0 0.0 0.00 0.00 0.00 99 1005.0
20260503205642 27 0 0.0 0.0 0.00 0.00 0.00 99 1005.0
20260503204117 27 0 0.0 0.0 0.00 0.00 0.00 99 1005.0
20260503202553 27 0 0.0 0.0 0.00 0.00 0.00 99 1005.0
20260503201027 27 0 0.0 0.0 0.00 0.00 0.00 99 1005.0
20260503195502 27 0 0.0 0.0 0.00 0.00 0.00 99 1005.0
20260503193937 27 0 0.0 0.0 0.00 0.00 0.00 99 1005.0
20260503192411 27 0 0.0 0.0 0.00 0.00 0.00 99 1005.0
20260503190846 27 0 0.0 0.0 0.00 0.00 0.00 99 1005.0
20260503185322 27 0 0.0 0.0 0.00 0.00 0.00 99 1005.0
20260503183756 27 0 0.0 0.0 0.00 0.00 0.00 99 1005.0
20260503182231 27 0 0.0 0.0 0.00 0.00 0.00 99 1005.0
20260503180706 27 0 0.0 0.0 0.00 0.00 0.00 99 1005.0
20260503175141 28 0 0.0 0.0 0.00 0.00 0.00 99 1006.0
20260503173616 28 0 0.0 0.0 0.00 0.00 0.00 99 1006.0
20260503172050 28 0 0.0 0.0 0.00 0.00 0.00 99 1005.0
20260503170525 28 0 0.0 0.0 0.00 0.00 0.00 99 1005.0